User: anonymous   Login
Location: *
(13.2257°S, 48.7193°W)
Time: 10:03:52
(UTC+00:00)
Language:

Delta 198 - Orbit

View from above orbital plane
View from above orbital plane
View from above satellite
View from above satellite

Ground track
Ground track

The orbit is defined by the following mean orbital elements,

1 20763U          26106.89410168 +.00000000 +00000-0 +13404-3 0 00008
2 20763  24.7610 323.4743 0329574 228.6493 128.5218 14.63554640    05
Epoch (UTC): 16 April 2026 21:27:30
Eccentricity: 0.0329574
inclination: 24.7610°
perigee height: 449 km
apogee height: 914 km
right ascension of ascending node: 323.4743°
argument of perigee: 228.6493°
revolutions per day: 14.63554640
mean anomaly at epoch: 128.5218°

The dashed part of the orbit path shows where the satellite is in the earth's shadow,  

DLR